Tracking 23610 objects as of 21-Sep-2021
HD Live streaming from Space Station
objects crossing your sky now

STARLINK-1740

Track STARLINK-1740 now!
10-day predictions
STARLINK-1740 is classified as:


NORAD ID: 46566
Int'l Code: 2020-070AL
Perigee: 554.0 km
Apogee: 554.7 km
Inclination: 53.1 °
Period: 95.6 minutes
Semi major axis: 6925 km
RCS: Unknown
Launch date: October 6, 2020
Source: United States (US)
Launch site: AIR FORCE EASTERN TEST RANGE (AFETR)
aabbcc
Your satellite tracking list
Your tracking list is empty




NASA's NSSDC Master Catalog

Two Line Element Set (TLE):
1 46566U 20070AL  21263.41787202  .00000848  00000-0  75797-4 0  9990
2 46566  53.0549 279.6942 0000459  77.4879 282.6161 15.06399743 53915
Source of the keplerian elements: AFSPC